Wetterdaten: Dienstag, 19.02.2019
Datum Zeit Temp. A. Feuchte A. Luftdruck Regen Wind Richtung Richtung Sonnenschein UV Solar Windben
19.02.2019 00:00 4,3 C 77 % 1014,8 hPa 0,0 mm 0,0 km/h (0 Bft) N 0 0 min 0 UV-I 0 W/m 0,0 km/h (0 Bft)
19.02.2019 00:10 4,2 C 78 % 1014,7 hPa 0,0 mm 0,0 km/h (0 Bft) N 0 0 min 0 UV-I 0 W/m 0,0 km/h (0 Bft)
19.02.2019 00:20 4,0 C 78 % 1014,7 hPa 0,0 mm 0,0 km/h (0 Bft) N 0 0 min 0 UV-I 0 W/m 0,0 km/h (0 Bft)
19.02.2019 00:30 3,9 C 79 % 1014,8 hPa 0,0 mm 0,0 km/h (0 Bft) N 0 0 min 0 UV-I 0 W/m 0,0 km/h (0 Bft)
19.02.2019 00:40 3,7 C 79 % 1014,8 hPa 0,0 mm 0,0 km/h (0 Bft) N 0 0 min 0 UV-I 0 W/m 0,0 km/h (0 Bft)
19.02.2019 00:50 3,6 C 80 % 1014,9 hPa 0,0 mm 0,0 km/h (0 Bft) N 0 0 min 0 UV-I 0 W/m 0,0 km/h (0 Bft)
19.02.2019 01:00 3,5 C 80 % 1014,8 hPa 0,0 mm 0,0 km/h (0 Bft) N 0 0 min 0 UV-I 0 W/m 0,0 km/h (0 Bft)
19.02.2019 01:10 3,4 C 81 % 1014,8 hPa 0,0 mm 0,0 km/h (0 Bft) N 0 0 min 0 UV-I 0 W/m 0,0 km/h (0 Bft)
19.02.2019 01:20 3,3 C 81 % 1014,8 hPa 0,0 mm 0,0 km/h (0 Bft) N 0 0 min 0 UV-I 0 W/m 0,0 km/h (0 Bft)
19.02.2019 01:30 3,2 C 82 % 1014,9 hPa 0,0 mm 0,0 km/h (0 Bft) N 0 0 min 0 UV-I 0 W/m 0,0 km/h (0 Bft)
19.02.2019 01:40 3,2 C 82 % 1014,8 hPa 0,0 mm 0,0 km/h (0 Bft) N 0 0 min 0 UV-I 0 W/m 0,0 km/h (0 Bft)
19.02.2019 01:50 3,1 C 82 % 1014,9 hPa 0,0 mm 0,0 km/h (0 Bft) N 0 0 min 0 UV-I 0 W/m 0,0 km/h (0 Bft)
19.02.2019 02:00 3,1 C 83 % 1014,8 hPa 0,0 mm 0,0 km/h (0 Bft) N 0 0 min 0 UV-I 0 W/m 0,0 km/h (0 Bft)
19.02.2019 02:10 3,0 C 83 % 1014,7 hPa 0,0 mm 0,0 km/h (0 Bft) N 0 0 min 0 UV-I 0 W/m 0,0 km/h (0 Bft)
19.02.2019 02:20 3,0 C 84 % 1014,8 hPa 0,0 mm 0,0 km/h (0 Bft) N 0 0 min 0 UV-I 0 W/m 0,0 km/h (0 Bft)
19.02.2019 02:30 3,1 C 84 % 1014,7 hPa 0,0 mm 0,0 km/h (0 Bft) SO 128 0 min 0 UV-I 0 W/m 1,6 km/h (1 Bft)
19.02.2019 02:40 3,3 C 85 % 1014,7 hPa 0,0 mm 0,0 km/h (0 Bft) N 0 0 min 0 UV-I 0 W/m 1,6 km/h (1 Bft)
19.02.2019 02:50 3,4 C 85 % 1014,5 hPa 0,0 mm 0,0 km/h (0 Bft) N 0 0 min 0 UV-I 0 W/m 0,0 km/h (0 Bft)
19.02.2019 03:00 3,7 C 85 % 1014,5 hPa 0,0 mm 0,0 km/h (0 Bft) N 0 0 min 0 UV-I 0 W/m 0,0 km/h (0 Bft)
19.02.2019 03:10 3,9 C 85 % 1014,5 hPa 0,0 mm 0,0 km/h (0 Bft) N 0 0 min 0 UV-I 0 W/m 0,0 km/h (0 Bft)
19.02.2019 03:20 4,2 C 84 % 1014,4 hPa 0,0 mm 0,0 km/h (0 Bft) N 0 0 min 0 UV-I 0 W/m 0,0 km/h (0 Bft)
19.02.2019 03:30 4,3 C 83 % 1014,4 hPa 0,0 mm 0,0 km/h (0 Bft) N 0 0 min 0 UV-I 0 W/m 0,0 km/h (0 Bft)
19.02.2019 03:40 4,3 C 83 % 1014,4 hPa 0,0 mm 0,0 km/h (0 Bft) N 0 0 min 0 UV-I 0 W/m 0,0 km/h (0 Bft)
19.02.2019 03:50 4,4 C 83 % 1014,3 hPa 0,0 mm 0,0 km/h (0 Bft) N 0 0 min 0 UV-I 0 W/m 0,0 km/h (0 Bft)
19.02.2019 04:00 4,6 C 83 % 1014,3 hPa 0,0 mm 0,5 km/h (0 Bft) SO 129 0 min 0 UV-I 0 W/m 9,7 km/h (2 Bft)
19.02.2019 04:10 5,1 C 83 % 1014,3 hPa 0,0 mm 2,9 km/h (1 Bft) SO 137 0 min 0 UV-I 0 W/m 11,3 km/h (2 Bft)
19.02.2019 04:20 5,7 C 80 % 1014,2 hPa 0,0 mm 2,7 km/h (1 Bft) SO 140 0 min 0 UV-I 0 W/m 11,3 km/h (2 Bft)
19.02.2019 04:30 6,2 C 78 % 1014,3 hPa 0,0 mm 1,9 km/h (1 Bft) SO 143 0 min 0 UV-I 0 W/m 14,5 km/h (3 Bft)
19.02.2019 04:40 6,6 C 77 % 1014,4 hPa 0,0 mm 1,9 km/h (1 Bft) S-SO 154 0 min 0 UV-I 0 W/m 14,5 km/h (3 Bft)
19.02.2019 04:50 6,9 C 76 % 1014,4 hPa 0,0 mm 2,1 km/h (1 Bft) S-SO 157 0 min 0 UV-I 0 W/m 9,7 km/h (2 Bft)
19.02.2019 05:00 6,9 C 76 % 1014,7 hPa 0,0 mm 1,8 km/h (1 Bft) S-SO 157 0 min 0 UV-I 0 W/m 8,0 km/h (2 Bft)
19.02.2019 05:10 7,1 C 76 % 1014,9 hPa 0,0 mm 4,0 km/h (1 Bft) SW 234 0 min 0 UV-I 0 W/m 20,9 km/h (4 Bft)
19.02.2019 05:20 7,2 C 76 % 1014,9 hPa 0,0 mm 2,7 km/h (1 Bft) W-SW 258 0 min 0 UV-I 0 W/m 20,9 km/h (4 Bft)
19.02.2019 05:30 7,3 C 76 % 1015,0 hPa 0,0 mm 2,8 km/h (1 Bft) W-SW 257 0 min 0 UV-I 0 W/m 11,3 km/h (2 Bft)
19.02.2019 05:40 7,5 C 77 % 1015,0 hPa 0,0 mm 3,8 km/h (1 Bft) W-SW 254 0 min 0 UV-I 0 W/m 14,5 km/h (3 Bft)
19.02.2019 05:50 7,6 C 78 % 1015,0 hPa 0,0 mm 6,3 km/h (2 Bft) W-SW 250 0 min 0 UV-I 0 W/m 16,1 km/h (3 Bft)
19.02.2019 06:00 7,8 C 78 % 1015,0 hPa 0,0 mm 4,4 km/h (1 Bft) SW 229 0 min 0 UV-I 0 W/m 16,1 km/h (3 Bft)
19.02.2019 06:10 7,8 C 78 % 1015,1 hPa 0,0 mm 3,8 km/h (1 Bft) W-SW 238 0 min 0 UV-I 0 W/m 11,3 km/h (2 Bft)
19.02.2019 06:20 7,8 C 78 % 1015,1 hPa 0,0 mm 4,8 km/h (1 Bft) W-SW 240 0 min 0 UV-I 0 W/m 14,5 km/h (3 Bft)
19.02.2019 06:30 7,8 C 79 % 1015,3 hPa 0,0 mm 3,9 km/h (1 Bft) W-SW 240 0 min 0 UV-I 0 W/m 19,3 km/h (3 Bft)
19.02.2019 06:40 7,7 C 80 % 1015,2 hPa 0,0 mm 3,9 km/h (1 Bft) W-SW 238 0 min 0 UV-I 0 W/m 19,3 km/h (3 Bft)
19.02.2019 06:50 7,6 C 81 % 1015,5 hPa 0,0 mm 2,9 km/h (1 Bft) W-SW 237 0 min 0 UV-I 0 W/m 14,5 km/h (3 Bft)
19.02.2019 07:00 7,4 C 82 % 1015,7 hPa 0,0 mm 3,1 km/h (1 Bft) W-SW 240 0 min 0 UV-I 0 W/m 9,7 km/h (2 Bft)
19.02.2019 07:10 7,3 C 83 % 1015,8 hPa 0,0 mm 4,3 km/h (1 Bft) W-SW 241 0 min 0 UV-I 0 W/m 11,3 km/h (2 Bft)
19.02.2019 07:20 7,2 C 83 % 1015,9 hPa 0,0 mm 3,3 km/h (1 Bft) W-SW 242 0 min 0 UV-I 0 W/m 14,5 km/h (3 Bft)
19.02.2019 07:30 7,2 C 84 % 1015,7 hPa 0,0 mm 0,9 km/h (0 Bft) W-SW 243 0 min 0 UV-I 0 W/m 14,5 km/h (3 Bft)
19.02.2019 07:40 7,1 C 84 % 1015,8 hPa 0,0 mm 2,8 km/h (1 Bft) W-SW 245 0 min 0 UV-I 0 W/m 12,9 km/h (3 Bft)
19.02.2019 07:50 7,0 C 84 % 1015,8 hPa 0,0 mm 1,9 km/h (1 Bft) W-SW 244 0 min 0 UV-I 0 W/m 12,9 km/h (3 Bft)
19.02.2019 08:00 6,9 C 85 % 1016,0 hPa 0,0 mm 0,8 km/h (0 Bft) W-SW 243 0 min 0 UV-I 0 W/m 8,0 km/h (2 Bft)
19.02.2019 08:10 6,9 C 85 % 1016,2 hPa 0,0 mm 0,4 km/h (0 Bft) W-SW 243 0 min 0 UV-I 0 W/m 4,8 km/h (1 Bft)
19.02.2019 08:20 6,9 C 86 % 1016,4 hPa 0,0 mm 1,9 km/h (1 Bft) W-SW 243 0 min 0 UV-I 7 W/m 8,0 km/h (2 Bft)
19.02.2019 08:30 6,9 C 86 % 1016,4 hPa 0,0 mm 3,7 km/h (1 Bft) W-SW 244 0 min 0 UV-I 13 W/m 11,3 km/h (2 Bft)
19.02.2019 08:40 6,9 C 86 % 1016,4 hPa 0,0 mm 4,7 km/h (1 Bft) W-SW 243 0 min 0 UV-I 19 W/m 11,3 km/h (2 Bft)
19.02.2019 08:50 7,0 C 86 % 1016,6 hPa 0,0 mm 5,1 km/h (1 Bft) SW 231 0 min 0 UV-I 25 W/m 20,9 km/h (4 Bft)
19.02.2019 09:00 7,1 C 85 % 1016,6 hPa 0,0 mm 5,4 km/h (1 Bft) SW 235 0 min 0 UV-I 37 W/m 20,9 km/h (4 Bft)
19.02.2019 09:10 7,2 C 85 % 1016,7 hPa 0,0 mm 5,2 km/h (1 Bft) W 259 0 min 0 UV-I 45 W/m 16,1 km/h (3 Bft)
19.02.2019 09:20 7,3 C 85 % 1016,8 hPa 0,0 mm 6,4 km/h (2 Bft) W-SW 247 0 min 0 UV-I 61 W/m 16,1 km/h (3 Bft)
19.02.2019 09:30 7,4 C 85 % 1016,9 hPa 0,0 mm 7,3 km/h (2 Bft) W-SW 249 0 min 0 UV-I 79 W/m 22,5 km/h (4 Bft)
19.02.2019 09:40 7,5 C 84 % 1017,1 hPa 0,0 mm 5,5 km/h (1 Bft) W-SW 245 0 min 0 UV-I 92 W/m 22,5 km/h (4 Bft)
19.02.2019 09:50 7,6 C 84 % 1017,1 hPa 0,0 mm 7,6 km/h (2 Bft) W-SW 258 0 min 0 UV-I 111 W/m 20,9 km/h (4 Bft)
19.02.2019 10:00 7,7 C 83 % 1017,2 hPa 0,0 mm 7,7 km/h (2 Bft) W-SW 242 0 min 0 UV-I 92 W/m 25,7 km/h (4 Bft)
19.02.2019 10:10 7,8 C 82 % 1017,3 hPa 0,0 mm 9,8 km/h (2 Bft) W-SW 247 0 min 0 UV-I 98 W/m 25,7 km/h (4 Bft)
19.02.2019 10:20 7,8 C 82 % 1017,4 hPa 0,0 mm 10,1 km/h (2 Bft) W-SW 255 0 min 1 UV-I 114 W/m 22,5 km/h (4 Bft)
19.02.2019 10:30 7,9 C 82 % 1017,4 hPa 0,0 mm 7,5 km/h (2 Bft) W-SW 248 0 min 1 UV-I 88 W/m 22,5 km/h (4 Bft)
19.02.2019 10:40 7,9 C 81 % 1017,5 hPa 0,0 mm 8,0 km/h (2 Bft) W 259 0 min 1 UV-I 100 W/m 19,3 km/h (3 Bft)
19.02.2019 10:50 7,9 C 81 % 1017,3 hPa 0,0 mm 5,1 km/h (1 Bft) W 265 0 min 1 UV-I 153 W/m 17,7 km/h (3 Bft)
19.02.2019 11:00 8,1 C 79 % 1017,4 hPa 0,0 mm 8,4 km/h (2 Bft) W-SW 250 10 min 1 UV-I 234 W/m 22,5 km/h (4 Bft)
19.02.2019 11:10 8,5 C 76 % 1017,5 hPa 0,0 mm 11,2 km/h (2 Bft) W-SW 251 10 min 1 UV-I 320 W/m 27,4 km/h (4 Bft)
19.02.2019 11:20 8,7 C 76 % 1017,5 hPa 0,0 mm 9,5 km/h (2 Bft) W-SW 247 10 min 1 UV-I 281 W/m 27,4 km/h (4 Bft)
19.02.2019 11:30 8,9 C 74 % 1017,5 hPa 0,0 mm 8,2 km/h (2 Bft) W 262 10 min 1 UV-I 279 W/m 24,1 km/h (4 Bft)
19.02.2019 11:40 9,1 C 73 % 1017,5 hPa 0,0 mm 10,4 km/h (2 Bft) W-SW 252 0 min 1 UV-I 234 W/m 27,4 km/h (4 Bft)
19.02.2019 11:50 9,1 C 73 % 1017,5 hPa 0,0 mm 9,6 km/h (2 Bft) W-SW 247 0 min 1 UV-I 206 W/m 27,4 km/h (4 Bft)
19.02.2019 12:00 9,0 C 76 % 1017,7 hPa 0,0 mm 7,9 km/h (2 Bft) W-SW 258 0 min 1 UV-I 173 W/m 24,1 km/h (4 Bft)
19.02.2019 12:10 9,1 C 72 % 1017,6 hPa 0,0 mm 9,6 km/h (2 Bft) W-SW 247 0 min 1 UV-I 139 W/m 32,2 km/h (5 Bft)
19.02.2019 12:20 9,2 C 71 % 1017,7 hPa 0,0 mm 10,6 km/h (2 Bft) W-SW 256 10 min 1 UV-I 401 W/m 33,8 km/h (5 Bft)
19.02.2019 12:30 9,8 C 69 % 1017,6 hPa 0,0 mm 11,2 km/h (2 Bft) W-SW 247 10 min 1 UV-I 475 W/m 33,8 km/h (5 Bft)
19.02.2019 12:40 10,0 C 68 % 1017,4 hPa 0,0 mm 7,9 km/h (2 Bft) W-SW 255 10 min 1 UV-I 307 W/m 29,0 km/h (5 Bft)
19.02.2019 12:50 9,9 C 69 % 1017,4 hPa 0,0 mm 9,7 km/h (2 Bft) W 260 0 min 1 UV-I 242 W/m 24,1 km/h (4 Bft)
19.02.2019 13:00 9,8 C 70 % 1017,3 hPa 0,0 mm 6,9 km/h (2 Bft) W 274 10 min 1 UV-I 256 W/m 24,1 km/h (4 Bft)
19.02.2019 13:10 9,8 C 70 % 1017,4 hPa 0,0 mm 6,2 km/h (2 Bft) W 277 0 min 1 UV-I 126 W/m 22,5 km/h (4 Bft)
19.02.2019 13:20 9,5 C 69 % 1017,3 hPa 0,0 mm 6,0 km/h (2 Bft) W 268 0 min 1 UV-I 91 W/m 20,9 km/h (4 Bft)
19.02.2019 13:30 9,3 C 70 % 1017,4 hPa 0,0 mm 5,8 km/h (2 Bft) W 267 0 min 1 UV-I 153 W/m 22,5 km/h (4 Bft)
19.02.2019 13:40 9,4 C 69 % 1017,3 hPa 0,0 mm 7,6 km/h (2 Bft) W 265 0 min 1 UV-I 154 W/m 22,5 km/h (4 Bft)
19.02.2019 13:50 9,6 C 68 % 1017,3 hPa 0,0 mm 4,7 km/h (1 Bft) W-SW 251 0 min 1 UV-I 190 W/m 22,5 km/h (4 Bft)
19.02.2019 14:00 9,9 C 67 % 1017,2 hPa 0,0 mm 7,8 km/h (2 Bft) W-SW 254 10 min 1 UV-I 255 W/m 22,5 km/h (4 Bft)
19.02.2019 14:10 10,2 C 67 % 1017,2 hPa 0,0 mm 7,0 km/h (2 Bft) W-SW 254 10 min 1 UV-I 265 W/m 22,5 km/h (4 Bft)
19.02.2019 14:20 10,4 C 66 % 1017,2 hPa 0,0 mm 6,6 km/h (2 Bft) W 263 0 min 1 UV-I 128 W/m 22,5 km/h (4 Bft)
19.02.2019 14:30 10,2 C 65 % 1017,2 hPa 0,0 mm 5,8 km/h (2 Bft) W 262 0 min 1 UV-I 152 W/m 24,1 km/h (4 Bft)
19.02.2019 14:40 10,2 C 64 % 1017,4 hPa 0,0 mm 8,7 km/h (2 Bft) W 267 0 min 1 UV-I 206 W/m 24,1 km/h (4 Bft)
19.02.2019 14:50 10,3 C 63 % 1017,4 hPa 0,0 mm 8,2 km/h (2 Bft) W 262 10 min 1 UV-I 235 W/m 29,0 km/h (5 Bft)
19.02.2019 15:00 10,3 C 63 % 1017,5 hPa 0,0 mm 9,0 km/h (2 Bft) W 269 0 min 1 UV-I 121 W/m 29,0 km/h (5 Bft)
19.02.2019 15:10 10,2 C 64 % 1017,6 hPa 0,0 mm 5,8 km/h (2 Bft) W 264 0 min 0 UV-I 62 W/m 25,7 km/h (4 Bft)
19.02.2019 15:20 10,0 C 66 % 1017,7 hPa 0,0 mm 3,5 km/h (1 Bft) W 274 0 min 0 UV-I 73 W/m 20,9 km/h (4 Bft)
19.02.2019 15:30 9,9 C 65 % 1017,6 hPa 0,0 mm 6,6 km/h (2 Bft) W 261 0 min 1 UV-I 88 W/m 24,1 km/h (4 Bft)
19.02.2019 15:40 9,8 C 66 % 1017,7 hPa 0,0 mm 4,7 km/h (1 Bft) W 262 0 min 0 UV-I 87 W/m 24,1 km/h (4 Bft)
19.02.2019 15:50 9,8 C 66 % 1017,6 hPa 0,0 mm 7,1 km/h (2 Bft) W-SW 250 0 min 0 UV-I 69 W/m 24,1 km/h (4 Bft)
19.02.2019 16:00 9,8 C 66 % 1017,7 hPa 0,0 mm 6,4 km/h (2 Bft) W 260 0 min 0 UV-I 70 W/m 24,1 km/h (4 Bft)
19.02.2019 16:10 9,7 C 66 % 1017,6 hPa 0,0 mm 3,2 km/h (1 Bft) W 267 0 min 0 UV-I 45 W/m 19,3 km/h (3 Bft)
19.02.2019 16:20 9,7 C 67 % 1017,7 hPa 0,0 mm 4,1 km/h (1 Bft) W 266 0 min 0 UV-I 52 W/m 17,7 km/h (3 Bft)
19.02.2019 16:30 9,6 C 67 % 1017,7 hPa 0,0 mm 5,0 km/h (1 Bft) W 260 0 min 0 UV-I 35 W/m 17,7 km/h (3 Bft)
19.02.2019 16:40 9,6 C 67 % 1017,7 hPa 0,0 mm 6,9 km/h (2 Bft) W-SW 252 0 min 0 UV-I 29 W/m 17,7 km/h (3 Bft)
19.02.2019 16:50 9,5 C 68 % 1017,7 hPa 0,0 mm 3,8 km/h (1 Bft) W-SW 246 0 min 0 UV-I 29 W/m 17,7 km/h (3 Bft)
19.02.2019 17:00 9,4 C 68 % 1017,8 hPa 0,0 mm 4,6 km/h (1 Bft) W-SW 251 0 min 0 UV-I 18 W/m 17,7 km/h (3 Bft)
19.02.2019 17:10 9,4 C 69 % 1017,8 hPa 0,0 mm 3,3 km/h (1 Bft) W-SW 249 0 min 0 UV-I 14 W/m 17,7 km/h (3 Bft)
19.02.2019 17:20 9,3 C 69 % 1017,8 hPa 0,0 mm 2,6 km/h (1 Bft) W-SW 248 0 min 0 UV-I 11 W/m 17,7 km/h (3 Bft)
19.02.2019 17:30 9,2 C 70 % 1017,8 hPa 0,0 mm 2,3 km/h (1 Bft) W-SW 244 0 min 0 UV-I 5 W/m 14,5 km/h (3 Bft)
19.02.2019 17:40 9,2 C 70 % 1017,8 hPa 0,0 mm 1,6 km/h (1 Bft) W-SW 241 0 min 0 UV-I 0 W/m 14,5 km/h (3 Bft)
19.02.2019 17:50 9,1 C 70 % 1017,8 hPa 0,0 mm 1,7 km/h (1 Bft) W-SW 243 0 min 0 UV-I 0 W/m 9,7 km/h (2 Bft)
19.02.2019 18:00 9,1 C 71 % 1017,9 hPa 0,0 mm 1,0 km/h (0 Bft) W-SW 246 0 min 0 UV-I 0 W/m 9,7 km/h (2 Bft)
19.02.2019 18:10 8,9 C 71 % 1018,1 hPa 0,0 mm 1,9 km/h (1 Bft) W-SW 251 0 min 0 UV-I 0 W/m 14,5 km/h (3 Bft)
19.02.2019 18:20 8,9 C 71 % 1018,2 hPa 0,0 mm 2,3 km/h (1 Bft) W-SW 246 0 min 0 UV-I 0 W/m 14,5 km/h (3 Bft)
19.02.2019 18:30 8,8 C 71 % 1018,2 hPa 0,0 mm 0,8 km/h (0 Bft) W-SW 254 0 min 0 UV-I 0 W/m 17,7 km/h (3 Bft)
19.02.2019 18:40 8,8 C 71 % 1018,3 hPa 0,0 mm 2,1 km/h (1 Bft) W 269 0 min 0 UV-I 0 W/m 17,7 km/h (3 Bft)
19.02.2019 18:50 8,8 C 71 % 1018,3 hPa 0,0 mm 3,2 km/h (1 Bft) W 270 0 min 0 UV-I 0 W/m 14,5 km/h (3 Bft)
19.02.2019 19:00 8,7 C 71 % 1018,5 hPa 0,0 mm 2,6 km/h (1 Bft) W-SW 257 0 min 0 UV-I 0 W/m 11,3 km/h (2 Bft)
19.02.2019 19:10 8,7 C 71 % 1018,6 hPa 0,0 mm 3,6 km/h (1 Bft) W-SW 246 0 min 0 UV-I 0 W/m 11,3 km/h (2 Bft)
19.02.2019 19:20 8,6 C 71 % 1018,8 hPa 0,0 mm 2,7 km/h (1 Bft) W-SW 241 0 min 0 UV-I 0 W/m 14,5 km/h (3 Bft)
19.02.2019 19:30 8,5 C 71 % 1018,8 hPa 0,0 mm 5,9 km/h (2 Bft) W-SW 253 0 min 0 UV-I 0 W/m 17,7 km/h (3 Bft)
19.02.2019 19:40 8,5 C 71 % 1018,8 hPa 0,0 mm 3,6 km/h (1 Bft) W 269 0 min 0 UV-I 0 W/m 17,7 km/h (3 Bft)
19.02.2019 19:50 8,5 C 71 % 1018,9 hPa 0,0 mm 5,5 km/h (1 Bft) W 268 0 min 0 UV-I 0 W/m 17,7 km/h (3 Bft)
19.02.2019 20:00 8,4 C 71 % 1019,0 hPa 0,0 mm 5,1 km/h (1 Bft) W 265 0 min 0 UV-I 0 W/m 17,7 km/h (3 Bft)
19.02.2019 20:10 8,4 C 71 % 1019,1 hPa 0,0 mm 4,0 km/h (1 Bft) W 261 0 min 0 UV-I 0 W/m 17,7 km/h (3 Bft)
19.02.2019 20:20 8,3 C 71 % 1019,2 hPa 0,0 mm 2,2 km/h (1 Bft) W 263 0 min 0 UV-I 0 W/m 14,5 km/h (3 Bft)
19.02.2019 20:30 8,2 C 72 % 1019,2 hPa 0,0 mm 2,5 km/h (1 Bft) W 264 0 min 0 UV-I 0 W/m 14,5 km/h (3 Bft)
19.02.2019 20:40 8,1 C 72 % 1019,4 hPa 0,0 mm 3,6 km/h (1 Bft) W 263 0 min 0 UV-I 0 W/m 11,3 km/h (2 Bft)
19.02.2019 20:50 7,9 C 72 % 1019,4 hPa 0,0 mm 2,4 km/h (1 Bft) W 264 0 min 0 UV-I 0 W/m 11,3 km/h (2 Bft)
19.02.2019 21:00 7,7 C 72 % 1019,4 hPa 0,0 mm 3,1 km/h (1 Bft) W 259 0 min 0 UV-I 0 W/m 11,3 km/h (2 Bft)
19.02.2019 21:10 7,4 C 73 % 1019,4 hPa 0,0 mm 0,8 km/h (0 Bft) W 261 0 min 0 UV-I 0 W/m 11,3 km/h (2 Bft)
19.02.2019 21:20 7,2 C 74 % 1019,5 hPa 0,0 mm 0,9 km/h (0 Bft) W 261 0 min 0 UV-I 0 W/m 9,7 km/h (2 Bft)
19.02.2019 21:30 7,1 C 74 % 1019,6 hPa 0,0 mm 1,7 km/h (1 Bft) W-SW 258 0 min 0 UV-I 0 W/m 9,7 km/h (2 Bft)
19.02.2019 21:40 6,9 C 75 % 1019,6 hPa 0,0 mm 0,0 km/h (0 Bft) W-SW 258 0 min 0 UV-I 0 W/m 6,4 km/h (2 Bft)
19.02.2019 21:50 6,7 C 75 % 1019,7 hPa 0,0 mm 0,0 km/h (0 Bft) N 0 0 min 0 UV-I 0 W/m 1,6 km/h (1 Bft)
19.02.2019 22:00 6,6 C 76 % 1019,7 hPa 0,0 mm 0,0 km/h (0 Bft) N 0 0 min 0 UV-I 0 W/m 0,0 km/h (0 Bft)
19.02.2019 22:10 6,3 C 76 % 1019,7 hPa 0,0 mm 0,0 km/h (0 Bft) N 0 0 min 0 UV-I 0 W/m 0,0 km/h (0 Bft)
19.02.2019 22:20 6,1 C 77 % 1019,7 hPa 0,0 mm 0,0 km/h (0 Bft) N 0 0 min 0 UV-I 0 W/m 0,0 km/h (0 Bft)
19.02.2019 22:30 5,9 C 78 % 1019,7 hPa 0,0 mm 0,0 km/h (0 Bft) W-SW 257 0 min 0 UV-I 0 W/m 4,8 km/h (1 Bft)
19.02.2019 22:40 5,8 C 79 % 1019,8 hPa 0,0 mm 0,2 km/h (0 Bft) W-SW 257 0 min 0 UV-I 0 W/m 4,8 km/h (1 Bft)
19.02.2019 22:50 5,8 C 79 % 1019,9 hPa 0,0 mm 0,7 km/h (0 Bft) W-SW 258 0 min 0 UV-I 0 W/m 8,0 km/h (2 Bft)
19.02.2019 23:00 5,9 C 79 % 1019,8 hPa 0,0 mm 2,1 km/h (1 Bft) W-SW 257 0 min 0 UV-I 0 W/m 8,0 km/h (2 Bft)
19.02.2019 23:10 6,0 C 79 % 1019,9 hPa 0,0 mm 2,4 km/h (1 Bft) W-SW 253 0 min 0 UV-I 0 W/m 11,3 km/h (2 Bft)
19.02.2019 23:20 6,1 C 78 % 1019,8 hPa 0,0 mm 0,2 km/h (0 Bft) W-SW 252 0 min 0 UV-I 0 W/m 11,3 km/h (2 Bft)
19.02.2019 23:30 6,2 C 78 % 1019,9 hPa 0,0 mm 0,0 km/h (0 Bft) N 0 0 min 0 UV-I 0 W/m 4,8 km/h (1 Bft)
19.02.2019 23:40 6,2 C 79 % 1020,0 hPa 0,0 mm 0,0 km/h (0 Bft) N 0 0 min 0 UV-I 0 W/m 0,0 km/h (0 Bft)
19.02.2019 23:50 6,2 C 79 % 1020,0 hPa 0,0 mm 1,4 km/h (1 Bft) W-SW 252 0 min 0 UV-I 0 W/m 6,4 km/h (2 Bft)
_ Min-Zeit 02:10 14:50 04:20 - 00:00 - - - - - 00:00
Minimum _ 3,0 C 63 % 1014,2 hPa - 0,0 km/h (0 Bft) - - - - - 0,0 km/h (0 Bft)
_ Max-Zeit 14:20 08:20 23:40 00:00 11:10 - - 11:00 12:30 12:30 12:20
Maximum _ 10,4 C 86 % 1020,0 hPa 0,0 mm 11,2 km/h
W-SW (2 Bft)
- - 10 min 1 UV-I 475 W/m 33,8 km/h
W-SW (5 Bft)
Durchschnitt _ 7,4 C 76 % 1017,0 hPa #0,0 mm 3,6 km/h (1 Bft) W-SW - #1:50 h 1 UV-I 133 W/m 13,9 km/h (3 Bft)